Ogden Hinckley Airport Ogden US
ICAO: KOGD
IATA: OGD
Category: Medium
Scheduled Services: No

Elevation: 4473 ft
TransAlt. 18000 ft.

Airport Communications:
APP/DEP:121.1
ASOS:125.55
ATIS:125.55
CTAF:118.7
GND:121.7
CEDAR CITY RDO:122.45
TWR:118.7
UNICOM:122.95

KOGD Zoom In..

If Map Doesn't Load, Click Here

Runways:

(A) RW 03 length 8103 ft width 150 ft
ILS 111.70 / hdg 31

(B) RW 07 length 3618 ft width 150 ft
---- / hdg 75

(C) RW 16 length 5195 ft width 100 ft
---- / hdg 165

(D) RW 21 length 8103 ft width 150 ft
---- / hdg 211

(E) RW 25 length 3618 ft width 150 ft
---- / hdg 255

(F) RW 34 length 5195 ft width 100 ft
---- / hdg 345

Location; KOGD
Day. 21 / Time. 15.53 Zulu
* Altimeter: 30.23
* Temperature: 15° c. 59°f.
* Wind from: 170° Speed 03 kn.
Dewpoint: -09° c.
Visibility: 10 Statute Miles.
Clouds: Clear (automated report).

KOGD 211553Z 17003KT 10SM CLR 15/M09 A3023 RMK AO2 SLP204 T01501094


Wind From 170°
Speed 03 kn.

 
 
jpsmedia.com for Web Design worldairports.se 2018   terms of use